Alliance, NE

6:33 AM MST on December 11, 2017 (GMT -0700)
Alliance Municipal

Weather History for KAIA - March, 2012

Change the Weather History Date:

Monday, March 19, 2012

  Actual Average Record
Temperature  
Mean Temperature 43 °F 38 °F  
Max Temperature 59 °F 52 °F 81 °F (2004)
Min Temperature 27 °F 23 °F -10 °F (1943)
Degree Days  
Heating Degree Days 22 27  
Month to date heating degree days 419 578  
Since 1 July heating degree days 5597 5982  
Cooling Degree Days 0 0  
Month to date cooling degree days 0 0  
Year to date cooling degree days 0 0  
Moisture  
Dew Point 14 °F    
Average Humidity 44    
Maximum Humidity 78    
Minimum Humidity 9    
Precipitation  
Precipitation 0.00 in 0.03 in 0.40 in (1942)
Month to date precipitation 0.00 0.30  
Year to date precipitation 0.86 0.86  
Sea Level Pressure  
Sea Level Pressure 29.48 in    
Wind  
Wind Speed 10 mph (West)    
Max Wind Speed 24 mph    
Max Gust Speed 31 mph    
Visibility 10 miles    
Events      
T = Trace of Precipitation, MM = Missing Value Source: NWS Daily Summary

Daily Weather History Graph

Daily Weather History Graph

Search for Another Location

Airport or City:

Trip Planner

Search our weather history database for the weather conditions in past years. The results will help you decide how hot, cold, wet, or windy it might be!

Date:

Astronomy

Mar. 19, 2012 Rise Set
Actual Time 6:55 AM MDT 7:02 PM MDT
Civil Twilight 6:27 AM MDT 7:30 PM MDT
Nautical Twilight 5:54 AM MDT 8:03 PM MDT
Astronomical Twilight 5:21 AM MDT 8:36 PM MDT
Moon 5:10 AM MDT (3/19) 4:31 PM MDT (3/19)
Length of Visible Light 13h 03m
Length of Day
12h 07m
Waning Crescent, 8% of the Moon is Illuminated
Mar 19
Waning Crescent
Mar 22
New
Mar 30
First Quarter
Apr 6
Full
Apr 13
Last Quarter

Hourly Weather History & Observations

Time (MDT) Temp. Windchill Dew Point Humidity Pressure Visibility Wind Dir Wind Speed Gust Speed Precip Events Conditions
12:24 AM 51.8 °F - 26.6 °F 38% 29.40 in 10.0 mi West 23.0 mph 29.9 mph N/A   Mostly Cloudy
12:37 AM 48.2 °F - 24.8 °F 40% 29.41 in 10.0 mi West 23.0 mph 27.6 mph N/A   Mostly Cloudy
12:53 AM 48.0 °F - 24.1 °F 39% 29.32 in 10.0 mi West 23.0 mph 31.1 mph N/A   Mostly Cloudy
1:53 AM 42.1 °F 36.6 °F 21.9 °F 45% 29.33 in 10.0 mi WNW 9.2 mph - N/A   Clear
2:53 AM 34.0 °F 26.6 °F 21.0 °F 59% 29.39 in 10.0 mi SW 9.2 mph - N/A   Clear
3:53 AM 32.0 °F 26.4 °F 23.0 °F 69% 29.39 in 10.0 mi WSW 5.8 mph - N/A   Clear
4:53 AM 32.0 °F - 23.0 °F 69% 29.43 in 10.0 mi Calm Calm - N/A   Clear
5:53 AM 30.0 °F 25.2 °F 23.0 °F 75% 29.46 in 10.0 mi West 4.6 mph - N/A   Clear
6:53 AM 28.9 °F 25.2 °F 23.0 °F 78% 29.48 in 10.0 mi West 3.5 mph - N/A   Clear
7:53 AM 28.4 °F - 23.0 °F 80% 29.53 in 10.0 mi Calm Calm - N/A   Clear
8:53 AM 41.0 °F 36.4 °F 26.6 °F 57% 29.53 in 10.0 mi WSW 6.9 mph - N/A   Clear
9:53 AM 46.9 °F - 9.0 °F 21% 29.45 in 10.0 mi West 19.6 mph 27.6 mph N/A   Clear
10:53 AM 50.0 °F - 7.0 °F 18% 29.45 in 10.0 mi WNW 20.7 mph 28.8 mph N/A   Clear
11:53 AM 53.1 °F - 5.0 °F 14% 29.44 in 10.0 mi West 16.1 mph 23.0 mph N/A   Clear
12:53 PM 55.9 °F - 1.9 °F 11% 29.44 in 10.0 mi SW 11.5 mph 26.5 mph N/A   Clear
1:53 PM 57.0 °F - 1.0 °F 10% 29.44 in 10.0 mi South 15.0 mph 25.3 mph N/A   Mostly Cloudy
2:53 PM 57.9 °F - 1.0 °F 10% 29.44 in 10.0 mi SSW 11.5 mph 18.4 mph N/A   Clear
3:53 PM 57.9 °F - -2.9 °F 8% 29.47 in 10.0 mi SW 11.5 mph 21.9 mph N/A   Clear
4:53 PM 57.0 °F - -2.9 °F 9% 29.48 in 10.0 mi WSW 12.7 mph - N/A   Clear
5:53 PM 55.0 °F - -2.0 °F 10% 29.50 in 10.0 mi WSW 9.2 mph - N/A   Clear
6:53 PM 48.0 °F - 3.9 °F 16% 29.54 in 10.0 mi WNW 10.4 mph - N/A   Clear
7:53 PM 45.0 °F 38.5 °F 7.0 °F 21% 29.58 in 10.0 mi NW 13.8 mph - N/A   Clear
8:53 PM 42.1 °F 34.9 °F 12.0 °F 29% 29.59 in 10.0 mi NW 13.8 mph - N/A   Clear
9:53 PM 37.9 °F 29.2 °F 21.9 °F 53% 29.62 in 10.0 mi NNW 15.0 mph - N/A   Clear
10:53 PM 35.1 °F 27.4 °F 23.0 °F 61% 29.63 in 10.0 mi NW 10.4 mph - N/A   Clear
11:53 PM 32.0 °F 25.6 °F 24.1 °F 73% 29.69 in 10.0 mi NNW 6.9 mph - N/A   Clear